Weather History for Kecskemet, Hungary

Change the Weather History Date:

Monday, January 7, 2013

  Actual Average (LHBP) Record (LHBP)
Temperature  
Mean Temperature 27 °F -  
Max Temperature 33 °F 35 °F 53 °F (2007)
Min Temperature 21 °F 23 °F 5 °F (2004)
Degree Days  
Heating Degree Days 38    
Moisture  
Dew Point 22 °F    
Average Humidity 77    
Maximum Humidity 100    
Minimum Humidity 55    
Precipitation  
Precipitation 0.00 in - - ()
Sea Level Pressure  
Sea Level Pressure 30.22 in    
Wind  
Wind Speed 6 mph ()    
Max Wind Speed 11 mph    
Max Gust Speed -    
Visibility 5.7 miles    
Events      
Averages and records for this station are not official NWS values.
T = Trace of Precipitation, MM = Missing Value Source: Averaged Metar Reports

Daily Weather History Graph

Daily Weather History Graph

Search for Another Location

Airport:

Trip Planner

Search our weather history database for the weather conditions in past years. The results will help you decide how hot, cold, wet, or windy it might be!

Date:

Astronomy

Jan. 07, 2013 Rise Set
Actual Time 7:25 AM CET 4:09 PM CET
Civil Twilight 6:50 AM CET 4:44 PM CET
Nautical Twilight 6:12 AM CET 5:22 PM CET
Astronomical Twilight 5:35 AM CET 5:59 PM CET
Moon 2:22 AM CET (1/7) 12:10 PM CET (1/7)
Length of Visible Light 9h 53m
Length of Day
8h 43m
Waning Crescent, 25% of the Moon is Illuminated
Jan 7
Waning Crescent
Jan 11
New
Jan 19
First Quarter
Jan 27
Full
Feb 3
Last Quarter

Hourly Weather History & Observations

Time (CET) Temp. Windchill Dew Point Humidity Pressure Visibility Wind Dir Wind Speed Gust Speed Precip Events Conditions
12:15 AM 33.8 °F 29.7 °F 33.8 °F 100% 30.01 in 3.1 mi North 4.5 mph - N/A   Overcast
12:45 AM 32.0 °F 27.6 °F 32.0 °F 100% 30.01 in 3.1 mi North 4.5 mph - N/A   Mostly Cloudy
1:15 AM 33.8 °F 26.5 °F 32.0 °F 93% 30.01 in 3.7 mi North 8.9 mph - N/A   Mostly Cloudy
1:45 AM 32.0 °F 24.3 °F 32.0 °F 100% 30.04 in 5.0 mi North 8.9 mph - N/A   Unknown
2:15 AM 32.0 °F 24.3 °F 30.2 °F 93% 30.04 in - North 8.9 mph - N/A   Clear
2:45 AM 32.0 °F 24.3 °F 28.4 °F 87% 30.06 in - North 8.9 mph - N/A   Clear
3:15 AM 32.0 °F 23.2 °F 26.6 °F 80% 30.06 in - NE 11.2 mph - N/A   Clear
3:45 AM 32.0 °F 24.3 °F 26.6 °F 80% 30.06 in - NE 8.9 mph - N/A   Clear
4:15 AM 30.2 °F 23.5 °F 26.6 °F 86% 30.06 in - NNE 6.7 mph - N/A   Clear
4:45 AM 30.2 °F 23.5 °F 26.6 °F 86% 30.09 in - NNE 6.7 mph - N/A   Clear
5:15 AM 30.2 °F 25.5 °F 26.6 °F 86% 30.09 in - North 4.5 mph - N/A   Clear
5:45 AM - - - N/A% - 6.2 mi NNE 6.7 mph - N/A   Clear
6:15 AM 28.4 °F 21.4 °F 26.6 °F 93% 30.15 in - NE 6.7 mph - N/A   Clear
6:45 AM 30.2 °F 25.5 °F 26.6 °F 86% 30.15 in - NNE 4.5 mph - N/A   Clear
7:15 AM 28.4 °F 23.4 °F 26.6 °F 93% 30.18 in - North 4.5 mph - N/A   Clear
7:45 AM 28.4 °F 23.4 °F 24.8 °F 86% 30.18 in - North 4.5 mph - N/A   Clear
8:15 AM 30.2 °F 20.9 °F 21.2 °F 69% 30.21 in - NE 11.2 mph - N/A   Clear
9:15 AM 30.2 °F 22.1 °F 19.4 °F 64% 30.21 in - NE 8.9 mph - N/A   Clear
9:45 AM 28.4 °F 21.4 °F 19.4 °F 69% 30.24 in - NE 6.7 mph - N/A   Clear
10:15 AM 30.2 °F 23.5 °F 17.6 °F 60% 30.24 in - NE 6.7 mph - N/A   Clear
10:45 AM 30.2 °F 23.5 °F 19.4 °F 64% 30.24 in - NNE 6.7 mph - N/A   Clear
11:15 AM 32.0 °F 24.3 °F 19.4 °F 60% 30.27 in 6.2 mi NNE 8.9 mph - N/A   Partly Cloudy
11:45 AM - - - N/A% - 6.2 mi NNE 8.9 mph - N/A   Clear
12:15 PM 32.0 °F 24.3 °F 19.4 °F 60% 30.27 in 6.2 mi NNE 8.9 mph - N/A   Partly Cloudy
1:15 PM 32.0 °F 27.6 °F 17.6 °F 55% 30.27 in 6.2 mi North 4.5 mph - N/A   Scattered Clouds
1:45 PM 32.0 °F 27.6 °F 17.6 °F 55% 30.27 in 6.2 mi North 4.5 mph - N/A   Partly Cloudy
2:15 PM 32.0 °F 27.6 °F 17.6 °F 55% 30.27 in 6.2 mi North 4.5 mph - N/A   Partly Cloudy
2:45 PM - - - N/A% - 6.2 mi Variable 4.5 mph - N/A   Clear
3:15 PM 28.4 °F 21.4 °F 19.4 °F 69% 30.30 in 6.2 mi WNW 6.7 mph - N/A   Partly Cloudy
3:45 PM 30.2 °F 25.5 °F 19.4 °F 64% 30.30 in 6.2 mi WNW 4.5 mph - N/A   Partly Cloudy
4:15 PM 26.6 °F 19.2 °F 19.4 °F 74% 30.30 in 6.2 mi WNW 6.7 mph - N/A   Mostly Cloudy
4:45 PM 24.8 °F 19.2 °F 19.4 °F 80% 30.33 in 6.2 mi WNW 4.5 mph - N/A   Mostly Cloudy
5:15 PM 28.4 °F 23.4 °F 19.4 °F 69% 30.33 in 6.2 mi NE 4.5 mph - N/A   Mostly Cloudy
5:45 PM - - - N/A% - 6.2 mi Variable 4.5 mph - N/A   Clear
6:15 PM 26.6 °F - 19.4 °F 74% 30.36 in 6.2 mi East 2.2 mph - N/A   Mostly Cloudy
7:15 PM 26.6 °F 21.3 °F 17.6 °F 69% 30.36 in 6.2 mi ENE 4.5 mph - N/A   Mostly Cloudy
7:45 PM 24.8 °F 19.2 °F 15.8 °F 69% 30.36 in 6.2 mi ENE 4.5 mph - N/A   Mostly Cloudy
8:15 PM 24.8 °F 19.2 °F 15.8 °F 69% 30.39 in 6.2 mi NE 4.5 mph - N/A   Mostly Cloudy
8:45 PM - - - N/A% - 6.2 mi Variable 4.5 mph - N/A   Clear
9:15 PM 23.0 °F 14.9 °F 15.8 °F 74% 30.39 in 6.2 mi East 6.7 mph - N/A   Mostly Cloudy
9:45 PM 23.0 °F 17.1 °F 15.8 °F 74% 30.39 in 6.2 mi East 4.5 mph - N/A   Mostly Cloudy
10:15 PM 21.2 °F 15.0 °F 15.8 °F 80% 30.39 in 6.2 mi NE 4.5 mph - N/A   Mostly Cloudy
10:45 PM 21.2 °F - 15.8 °F 80% 30.39 in 6.2 mi ENE 2.2 mph - N/A   Mostly Cloudy
11:15 PM 21.2 °F - 15.8 °F 80% 30.39 in 6.2 mi Calm Calm - N/A   Mostly Cloudy
11:45 PM - - - N/A% - 0.5 mi North - - N/A   Mostly Cloudy